Terminal Aerodrome Forecast
Issued by NWS Boston, MA

Home | Current Version | Previous Version | Text Only | Print | Product List | Glossary On
Versions: 1 2 3 4 5 6 7 8 9 10 11 12 13 14 15 16 17 18 19 20 21 22 23 24 25 26 27 28 29 30 31 32 33 34 35 36 37 38 39 40 41 42 43 44 45 46 47 48
000
FTUS41 KBOX 021720
TAFBOS
TAF
KBOS 021720Z 0218/0324 25010KT P6SM SCT050
     FM030100 28004KT P6SM SCT050
     FM030900 34004KT P6SM SCT250
     FM031500 05004KT P6SM FEW250
     FM032100 12004KT P6SM FEW250=

USA.gov is the U.S. government's official web portal to all federal, state and local government web resources and services.